TimePDT,TemperatureF,Dew PointF,Humidity,Sea Level PressureIn,VisibilityMPH,Wind Direction,Wind SpeedMPH,Gust SpeedMPH,PrecipitationIn,Events,Conditions,WindDirDegrees,DateUTC
12:53 AM,41.0,30.0,65,30.03,10.0,South,15.0,23.0,0.00,Rain,Light Rain,180,2012-03-30 07:53:00
1:22 AM,41.0,30.2,65,30.12,10.0,SSW,15.0,23.0,0.00,Rain,Light Rain,200,2012-03-30 08:22:00
1:46 AM,39.2,30.2,70,30.11,10.0,South,15.0,21.9,0.00,Rain,Light Rain,170,2012-03-30 08:46:00
1:53 AM,39.9,30.9,70,30.04,10.0,South,11.5,-,0.00,,Overcast,190,2012-03-30 08:53:00
2:50 AM,39.2,30.2,70,30.11,10.0,South,15.0,-,0.00,Rain,Light Rain,180,2012-03-30 09:50:00
2:53 AM,39.0,30.9,73,30.04,10.0,South,15.0,-,0.00,Rain,Light Rain,180,2012-03-30 09:53:00
3:53 AM,39.0,30.9,73,30.03,10.0,SSW,12.7,-,0.00,,Overcast,200,2012-03-30 10:53:00
4:53 AM,39.2,33.8,81,30.09,10.0,SSW,10.4,-,N/A,,Overcast,200,2012-03-30 11:53:00
5:53 AM,39.0,33.1,79,30.02,10.0,South,13.8,-,0.00,Rain,Light Rain,190,2012-03-30 12:53:00
6:53 AM,39.9,33.1,77,30.02,10.0,South,12.7,-,0.00,Rain,Light Rain,190,2012-03-30 13:53:00
7:31 AM,42.8,32.0,66,30.09,10.0,SSW,11.5,-,N/A,,Overcast,200,2012-03-30 14:31:00
7:53 AM,43.0,33.1,68,30.03,10.0,South,9.2,-,N/A,,Overcast,190,2012-03-30 14:53:00
8:18 AM,44.6,35.6,71,30.09,10.0,South,9.2,-,N/A,,Overcast,190,2012-03-30 15:18:00
8:32 AM,44.6,35.6,71,30.09,10.0,SSW,9.2,-,N/A,,Overcast,200,2012-03-30 15:32:00
8:53 AM,46.0,35.1,66,30.01,10.0,South,10.4,-,N/A,,Scattered Clouds,180,2012-03-30 15:53:00
9:53 AM,51.1,37.0,59,29.99,10.0,South,13.8,19.6,N/A,,Mostly Cloudy,190,2012-03-30 16:53:00
10:53 AM,53.6,35.6,51,30.08,10.0,South,17.3,25.3,N/A,,Overcast,180,2012-03-30 17:53:00
11:53 AM,54.0,36.0,51,29.97,10.0,South,17.3,24.2,N/A,,Overcast,190,2012-03-30 18:53:00
12:53 PM,54.0,37.0,53,29.97,10.0,South,5.8,-,N/A,,Overcast,180,2012-03-30 19:53:00
1:53 PM,55.9,37.0,49,29.95,10.0,South,11.5,27.6,N/A,,Overcast,190,2012-03-30 20:53:00
2:53 PM,57.9,37.0,46,29.92,10.0,SSW,17.3,24.2,N/A,,Partly Cloudy,200,2012-03-30 21:53:00
3:53 PM,57.9,36.0,44,29.89,10.0,South,10.4,18.4,N/A,,Scattered Clouds,190,2012-03-30 22:53:00
4:53 PM,57.9,37.0,46,29.88,10.0,SSW,12.7,16.1,N/A,,Mostly Cloudy,200,2012-03-30 23:53:00
5:53 PM,55.0,37.9,53,29.88,10.0,South,15.0,21.9,N/A,,Overcast,190,2012-03-31 00:53:00
6:53 PM,53.1,37.9,57,29.88,10.0,SW,10.4,21.9,N/A,,Overcast,220,2012-03-31 01:53:00
7:53 PM,50.0,37.9,63,29.88,10.0,SSW,8.1,20.7,N/A,,Overcast,210,2012-03-31 02:53:00
8:53 PM,50.0,37.9,63,29.87,10.0,SSW,8.1,-,N/A,,Overcast,200,2012-03-31 03:53:00
9:53 PM,48.9,37.0,64,29.85,10.0,South,9.2,-,N/A,,Overcast,180,2012-03-31 04:53:00
10:53 PM,48.0,36.0,63,29.82,10.0,South,11.5,20.7,N/A,,Overcast,190,2012-03-31 05:53:00
11:53 PM,48.0,34.0,58,29.80,10.0,SSW,12.7,24.2,N/A,,Clear,210,2012-03-31 06:53:00